Temperature
25 21 21 23 23 23 22 21 20 20 21 19 17 16 16 17 17 16 16 16 16 15 15 14 14 14 14 14 14 14 14 14 14 14 14 14 15 15 15 15 15 16 16 16
21 22 24 24 23 22 21 20 20 20 21 18 16 16 16 17 16 16 16 15 15 15 14 14 14 13 13 13 13 13 13 13 13 13 13 14 14 14 15 15 15 15 16 16
22 23 24 23 22 21 20 20 20 20 20 18 16 16 16 16 16 16 15 15 15 14 14 14 13 13 13 13 13 13 13 13 13 13 13 13 14 14 14 14 15 15 15 15
22 23 22 21 21 21 20 21 21 21 18 17 17 14 15 15 15 15 15 15 14 14 14 13 13 13 13 12 12 12 13 13 13 13 13 13 13 13 14 14 14 14 15 15
22 22 21 21 21 21 21 21 21 20 19 17 16 14 14 15 14 14 14 14 14 14 14 13 13 13 12 12 12 12 12 12 12 13 13 13 13 13 13 14 14 14 15 15
22 22 22 21 22 21 21 19 18 16 15 16 17 15 14 13 14 14 14 14 14 14 14 13 13 13 13 12 12 12 12 12 12 12 12 12 13 13 13 13 14 14 14 15
21 21 21 22 20 20 18 16 15 16 15 16 16 15 14 14 15 15 14 14 14 14 14 13 13 13 13 12 12 12 12 12 12 12 12 12 12 12 13 13 13 13 14 14
19 19 20 21 20 19 19 16 16 16 16 15 16 15 14 15 16 15 15 15 14 14 14 13 13 13 13 12 12 12 12 12 12 12 12 12 12 12 12 12 13 13 13 13
18 19 20 21 21 20 19 17 16 15 16 15 15 15 15 15 15 15 15 15 14 14 14 14 13 13 13 12 12 12 12 12 12 12 12 12 12 12 12 12 12 13 13 13
18 18 20 21 20 20 19 18 14 15 16 15 16 15 13 14 14 14 14 15 15 14 14 14 14 13 13 13 12 12 12 12 12 12 12 11 11 12 12 12 12 12 13 13
19 18 19 19 19 19 19 18 15 13 14 15 15 14 15 14 14 14 15 15 15 15 14 14 14 13 13 13 12 12 12 12 12 12 11 11 11 11 12 12 12 12 12 13
18 15 16 18 19 19 19 18 15 15 15 14 13 13 16 15 15 15 15 15 15 15 15 14 14 14 13 13 12 12 12 12 11 11 11 11 11 11 11 11 12 12 12 12
18 16 16 18 17 18 19 19 17 13 13 13 14 14 15 15 15 16 16 15 15 15 15 14 14 14 13 13 13 12 12 12 12 12 11 11 11 11 11 11 11 12 12 12
18 16 17 18 17 18 18 18 18 15 14 14 15 15 15 14 14 15 16 16 16 15 15 15 14 14 13 13 13 12 12 12 12 12 11 11 11 11 11 11 11 11 11 12
17 18 19 18 19 20 19 19 18 17 15 15 15 16 15 14 14 16 16 16 16 15 15 15 15 14 14 13 13 12 12 12 11 11 11 11 11 11 11 11 11 11 11 11
17 19 19 19 20 20 20 19 18 18 17 16 16 16 16 17 17 16 16 16 16 16 15 15 15 14 14 13 13 13 12 12 11 11 11 11 11 10 10 10 10 10 11 11
17 18 18 17 19 20 19 19 18 18 18 17 16 16 15 15 15 16 17 16 16 16 15 15 15 15 14 14 13 13 12 12 11 11 11 10 10 10 10 10 10 10 10 10
17 16 15 16 19 19 19 19 19 18 18 17 17 16 16 17 18 18 17 17 16 16 16 15 15 15 14 14 13 13 12 12 11 11 11 10 10 10 10 10 10 10 10 10
16 17 16 15 17 18 19 20 20 20 19 18 17 17 17 18 17 17 17 17 17 16 16 15 15 15 14 14 13 13 12 12 12 11 11 10 10 10 10 10 10 10 10 10
16 15 15 16 18 19 19 21 21 20 19 19 18 17 17 17 13 15 18 17 17 16 16 15 15 15 14 14 14 13 13 12 12 11 11 11 10 10 10 10 10 9 9 10
17 16 15 16 17 17 18 21 20 19 19 21 20 20 18 17 17 19 18 17 17 16 16 15 15 15 14 14 14 13 13 12 12 11 11 11 11 10 10 10 10 10 10 10
16 16 15 14 17 18 20 20 18 19 22 22 22 21 20 20 20 19 18 18 17 16 16 16 15 15 15 14 14 14 13 13 12 12 11 11 11 11 10 10 10 10 10 10
16 16 15 15 17 20 22 22 23 23 22 22 22 22 21 20 19 19 18 18 17 17 16 16 15 15 15 15 14 14 14 13 12 12 12 11 11 11 11 10 10 10 10 10
17 18 17 18 18 21 22 23 23 22 22 22 22 22 21 20 20 19 18 18 17 17 16 16 16 16 15 15 15 14 14 13 13 12 12 12 11 11 11 11 11 11 11 11
17 18 18 19 18 21 23 23 24 23 22 22 22 22 21 21 20 19 18 18 17 17 17 16 16 16 16 15 15 15 14 14 13 13 12 12 12 12 11 11 11 11 11 11
13 14 15 17 19 19 22 22 23 23 22 22 22 21 21 21 20 20 19 18 18 17 17 17 17 16 16 16 16 15 15 14 14 13 13 12 12 12 12 11 11 11 11 11
Wind_Speed
5 6 3 1 3 4 3 4 4 3 5 6 8 7 4 3 6 6 6 6 6 6 6 7 8 8 9 9 9 9 9 8 6 4 4 4 4 4 4 4 5 6 6 6
7 3 1 3 5 8 8 8 4 2 3 5 7 5 2 3 4 5 5 5 5 6 8 8 8 8 8 9 9 9 9 9 8 5 4 4 4 4 4 4 4 5 5 6
7 1 3 7 8 8 6 5 4 3 2 6 8 3 1 2 4 5 4 3 4 5 6 7 8 8 8 9 9 9 9 9 8 8 5 5 3 3 3 4 4 4 5 6
5 3 6 7 5 5 1 2 2 3 4 3 6 4 4 2 2 3 2 3 4 4 5 6 7 9 8 8 9 9 8 9 9 8 6 5 4 3 4 4 4 5 5 5
3 3 6 5 1 1 3 2 1 0 2 1 1 5 4 2 0 1 1 2 3 4 5 6 7 8 8 8 8 8 9 8 8 8 7 5 4 4 4 4 5 5 5 5
4 3 4 1 2 1 2 6 7 6 5 1 3 5 4 3 3 2 1 2 3 4 5 6 7 7 7 7 8 8 9 9 9 8 7 6 6 6 6 6 5 5 4 4
4 5 4 4 5 6 7 6 5 6 4 4 1 4 4 4 4 4 2 1 2 4 5 6 7 8 8 9 9 8 9 9 9 9 8 7 7 6 5 5 5 5 4 4
4 2 3 3 2 1 1 7 6 2 3 4 3 1 4 4 3 3 3 2 2 3 4 5 6 6 6 8 8 8 8 8 9 8 8 8 7 5 4 5 5 5 4 4
6 4 3 1 1 2 2 2 6 6 0 1 1 1 3 2 2 2 2 1 2 3 4 5 5 5 6 6 7 7 7 7 8 8 8 8 8 7 7 7 6 5 5 5
7 4 3 2 4 4 1 3 6 3 1 2 3 4 5 6 5 4 3 2 3 4 4 5 5 4 5 5 5 6 5 6 6 8 7 7 8 8 7 7 8 9 8 8
5 6 1 3 1 1 4 4 5 4 4 4 3 6 5 8 7 6 5 5 5 4 4 4 4 4 4 4 4 5 6 6 7 7 7 8 8 8 8 8 8 8 8 9
4 6 3 2 4 0 3 4 5 3 1 2 3 6 3 8 8 7 6 5 5 4 4 4 4 3 4 4 4 5 5 5 6 6 7 8 8 8 9 9 9 8 9 9
4 6 4 4 6 3 0 2 5 6 3 2 2 6 2 5 6 7 6 6 5 5 5 4 3 3 4 3 3 4 4 4 5 5 7 7 8 8 8 8 8 8 8 9
4 4 6 6 7 6 4 5 4 5 3 2 5 6 5 7 8 8 7 7 5 5 5 4 3 4 3 3 2 2 3 3 4 5 6 7 7 7 7 7 7 8 8 8
5 3 3 6 7 5 6 7 8 6 7 7 7 7 9 11 11 10 8 7 5 5 5 4 4 3 3 2 1 1 2 2 3 4 5 6 6 6 7 7 7 7 8 8
3 2 0 3 6 5 4 7 8 7 6 7 6 7 7 8 7 8 8 7 6 6 5 4 4 3 3 3 2 1 0 1 2 4 4 5 5 6 6 6 7 7 7 7
2 3 2 3 3 0 6 8 9 7 7 8 8 8 5 6 9 10 10 9 8 7 6 5 4 3 4 4 4 3 2 1 3 3 3 4 5 5 6 6 7 6 6 6
5 4 3 1 3 3 7 5 6 7 7 9 7 7 11 10 11 10 9 9 8 7 6 4 3 3 3 3 3 3 3 3 3 3 2 3 4 5 5 6 6 5 4 5
4 6 4 3 1 6 7 3 3 3 6 7 9 9 10 6 5 4 8 9 9 8 7 5 4 4 3 4 5 5 3 3 3 2 0 1 2 3 4 5 5 4 4 4
6 6 5 3 0 4 6 3 3 3 5 6 9 11 10 9 5 7 8 8 8 8 6 5 4 4 4 4 6 6 4 3 3 2 2 1 1 2 3 4 3 3 3 3
2 3 3 3 3 7 7 1 4 1 7 4 8 10 12 11 9 6 8 9 9 8 7 6 5 5 5 6 7 7 5 5 5 3 2 1 1 1 2 3 3 3 4 4
7 5 4 4 2 6 5 6 6 9 5 3 7 9 12 10 7 7 9 10 10 8 7 7 5 5 5 6 8 7 7 6 5 3 2 1 2 2 1 3 4 4 4 5
7 8 7 8 8 7 7 10 8 6 5 5 6 8 10 9 9 10 10 10 10 10 8 7 7 6 5 6 8 8 7 7 5 4 3 3 2 1 1 2 2 3 4 3
4 4 4 3 7 6 7 8 7 6 7 6 7 8 10 10 12 11 10 10 10 9 9 7 7 7 7 7 8 9 8 7 6 5 5 4 3 2 1 1 1 2 1 2
4 1 0 3 7 7 5 5 7 7 7 6 5 8 12 12 12 12 11 11 10 9 8 7 8 8 9 8 9 9 8 8 7 6 5 5 5 4 3 2 1 2 2 3
5 3 1 5 6 3 5 6 4 4 6 6 6 6 7 11 13 13 12 11 11 10 9 8 9 9 9 8 9 9 9 8 7 5 5 5 5 4 4 3 2 3 4 4
Wind_Direction
41 67 74 80 128 133 107 100 112 122 134 111 128 140 161 113 90 79 61 46 31 16 356 1 0 357 354 349 345 341 340 335 332 323 314 306 300 295 293 285 277 274 264 257
50 58 301 59 64 76 82 87 86 67 128 111 125 128 143 109 103 101 84 54 27 8 357 351 351 350 348 342 340 342 341 334 332 321 300 273 271 272 273 284 293 284 275 266
132 209 57 74 59 73 72 112 153 189 79 95 112 86 119 74 78 75 69 56 26 17 355 343 343 340 341 342 340 340 332 332 330 330 323 317 309 305 311 310 304 294 288 273
95 41 78 75 62 81 116 181 164 146 119 198 156 172 218 171 68 46 36 28 10 357 346 340 340 338 337 334 336 335 333 333 332 336 339 335 325 310 293 294 292 296 294 281
82 63 68 67 35 92 228 264 284 176 142 27 99 136 245 178 178 290 316 5 357 348 341 338 337 332 331 334 338 339 340 338 337 340 341 336 330 312 309 315 317 313 303 288
75 59 84 88 315 314 15 23 28 49 71 341 254 151 237 234 214 226 273 335 338 333 335 336 337 339 336 338 340 343 345 344 346 349 349 349 345 338 341 339 333 325 314 304
50 17 14 34 21 11 54 62 30 12 11 268 45 112 233 222 194 177 189 262 300 320 331 335 339 343 339 340 343 344 348 348 348 351 352 350 348 345 345 336 328 330 329 319
124 303 325 22 102 280 37 125 137 185 242 287 14 146 249 217 176 161 176 201 303 325 325 327 326 329 330 333 338 343 349 350 350 353 352 354 354 354 351 342 339 338 332 321
148 212 282 305 19 99 49 92 167 145 184 3 312 288 293 204 193 203 204 195 296 308 321 323 325 329 327 331 336 338 346 352 352 353 354 358 0 3 3 3 3 0 359 2
131 151 251 252 20 359 98 125 71 82 72 324 293 242 231 217 220 222 224 235 263 291 308 316 322 321 321 325 333 342 349 352 352 359 4 11 4 7 9 15 18 16 14 17
110 123 110 44 35 316 29 51 80 108 144 154 277 272 221 197 197 197 214 222 238 262 281 290 299 304 312 330 342 349 353 357 0 4 10 13 11 11 18 23 20 19 21 22
90 109 91 314 307 305 135 137 129 128 284 160 200 268 245 182 187 190 208 221 236 255 258 272 285 304 319 328 338 350 356 2 2 8 16 16 15 18 22 21 20 22 25 24
91 105 87 348 334 340 86 176 141 131 117 136 206 271 254 193 193 205 208 220 238 254 258 275 290 297 300 311 327 344 359 7 10 21 25 19 16 19 19 17 17 20 23 23
109 103 153 188 214 203 200 207 167 124 140 239 232 245 222 216 212 218 219 222 232 243 250 253 270 279 286 298 307 337 356 13 29 30 29 22 15 15 15 16 17 18 21 24
103 112 198 220 215 185 193 197 189 180 188 199 233 228 230 212 207 209 213 219 226 230 233 234 243 256 267 280 291 338 13 28 42 42 31 16 10 14 16 17 16 18 22 25
98 137 234 279 237 208 234 228 205 210 207 216 232 253 238 195 185 198 206 208 212 217 219 222 231 234 237 229 216 189 104 55 63 59 34 15 14 13 12 12 14 17 17 15
101 125 95 305 309 66 279 244 205 211 208 191 214 231 173 173 193 199 202 204 206 205 203 207 225 233 226 218 200 176 168 105 84 73 41 20 17 16 8 12 16 14 11 14
124 109 114 29 43 255 259 263 191 202 228 207 207 199 179 194 201 201 196 193 197 194 193 201 211 211 210 198 176 155 132 107 98 87 50 20 19 14 7 12 11 5 4 11
125 124 96 85 335 290 294 279 163 190 271 219 199 194 192 176 148 235 215 188 185 188 190 197 197 190 188 178 164 138 128 115 108 111 71 348 15 17 10 5 358 354 6 14
68 86 103 99 55 270 269 275 123 89 286 255 188 186 178 144 171 243 217 185 178 178 179 179 169 164 162 169 152 140 147 146 162 196 214 230 309 13 7 354 353 357 11 15
52 54 110 162 236 268 259 184 83 110 255 256 186 183 174 182 203 213 177 173 174 178 183 170 165 176 183 168 149 151 168 193 209 204 189 193 236 288 357 5 6 15 32 36
168 162 186 154 199 272 226 150 185 221 242 234 195 188 187 201 199 177 170 172 175 182 186 177 179 198 196 173 158 167 195 214 212 199 195 218 249 275 57 50 29 30 46 51
184 185 182 184 214 243 213 206 221 192 211 227 202 201 182 177 177 177 179 180 185 190 196 191 189 202 205 189 174 182 208 209 203 200 212 226 228 232 121 97 67 41 44 57
286 171 148 231 269 263 248 247 255 226 228 228 201 188 173 179 182 184 185 189 194 198 200 199 193 202 214 208 199 200 202 198 196 206 217 214 207 216 212 144 116 93 67 63
317 36 104 268 292 321 323 273 255 250 254 248 211 187 185 181 185 188 191 196 199 201 202 197 198 206 216 208 207 209 201 190 196 211 218 214 210 205 200 194 194 193 220 211
355 347 269 251 281 261 286 318 319 263 258 246 225 205 196 189 192 192 197 200 199 201 199 201 206 211 216 207 209 211 203 191 190 205 214 212 208 207 200 198 241 276 245 251
Height
1535 1541 1548 1545 1542 1544 1547 1552 1557 1556 1553 1559 1566 1569 1568 1568 1567 1567 1566 1565 1563 1561 1559 1556 1552 1548 1544 1540 1536 1533 1530 1527 1524 1521 1519 1517 1516 1515 1514 1513 1513 1513 1513 1513
1543 1547 1541 1540 1540 1544 1548 1556 1559 1556 1553 1560 1569 1571 1570 1569 1568 1568 1567 1565 1563 1561 1558 1554 1551 1547 1542 1538 1534 1531 1528 1524 1521 1518 1516 1514 1512 1511 1510 1509 1509 1508 1508 1509
1545 1545 1539 1542 1545 1549 1553 1557 1558 1558 1557 1561 1570 1577 1573 1571 1569 1568 1567 1565 1563 1561 1557 1554 1550 1546 1542 1538 1533 1530 1526 1523 1519 1516 1513 1511 1508 1507 1506 1505 1505 1504 1504 1504
1543 1542 1542 1546 1549 1550 1556 1550 1551 1554 1563 1571 1569 1586 1577 1572 1571 1569 1567 1565 1563 1560 1557 1554 1550 1545 1541 1537 1533 1529 1525 1521 1518 1514 1511 1508 1506 1504 1503 1502 1501 1501 1500 1500
1547 1545 1547 1550 1550 1548 1551 1547 1550 1553 1560 1568 1569 1582 1580 1573 1573 1570 1567 1565 1563 1560 1557 1553 1550 1546 1542 1538 1533 1529 1525 1521 1517 1513 1510 1507 1504 1502 1501 1500 1498 1497 1497 1496
1545 1545 1547 1549 1547 1547 1547 1551 1555 1562 1569 1578 1569 1578 1581 1576 1571 1568 1566 1564 1562 1560 1557 1553 1550 1546 1542 1538 1533 1529 1525 1521 1517 1513 1509 1506 1503 1501 1499 1498 1496 1495 1494 1493
1553 1551 1548 1548 1551 1550 1553 1567 1581 1582 1588 1583 1569 1575 1578 1569 1566 1566 1565 1564 1562 1559 1556 1553 1549 1546 1542 1538 1534 1529 1525 1521 1517 1513 1510 1506 1503 1501 1498 1497 1495 1493 1492 1491
1562 1566 1553 1550 1553 1556 1556 1565 1583 1590 1590 1584 1574 1577 1575 1566 1565 1564 1564 1563 1561 1559 1556 1553 1550 1546 1543 1539 1535 1531 1526 1522 1518 1514 1511 1507 1504 1501 1499 1497 1495 1493 1491 1490
1563 1565 1553 1551 1551 1552 1557 1563 1565 1578 1578 1584 1580 1576 1571 1566 1565 1564 1563 1562 1560 1558 1556 1553 1550 1547 1543 1540 1536 1532 1528 1524 1520 1516 1512 1508 1505 1502 1499 1497 1495 1493 1491 1489
1551 1562 1555 1552 1553 1552 1554 1558 1570 1576 1584 1590 1581 1578 1578 1568 1565 1564 1562 1561 1559 1558 1555 1553 1550 1547 1544 1541 1537 1533 1530 1526 1522 1518 1514 1510 1507 1504 1501 1499 1496 1494 1492 1490
1546 1560 1560 1557 1559 1559 1558 1561 1569 1579 1582 1589 1591 1583 1563 1562 1561 1561 1561 1559 1558 1557 1555 1552 1550 1547 1545 1541 1538 1535 1531 1527 1524 1520 1516 1512 1509 1506 1503 1500 1498 1495 1493 1491
1547 1561 1569 1562 1557 1554 1555 1559 1568 1579 1580 1583 1589 1582 1557 1557 1558 1559 1559 1558 1557 1556 1554 1552 1550 1547 1545 1542 1539 1536 1532 1529 1526 1522 1518 1515 1512 1508 1505 1502 1500 1497 1495 1493
1547 1560 1574 1571 1568 1559 1557 1556 1561 1571 1579 1582 1586 1577 1557 1557 1557 1557 1557 1556 1555 1555 1553 1552 1550 1547 1545 1542 1540 1537 1534 1531 1528 1524 1521 1517 1514 1511 1508 1505 1502 1500 1497 1495
1546 1557 1566 1570 1568 1559 1558 1557 1557 1567 1578 1577 1573 1566 1558 1557 1556 1555 1555 1554 1554 1553 1552 1551 1549 1547 1545 1543 1540 1538 1535 1532 1529 1526 1523 1519 1516 1513 1510 1507 1505 1502 1499 1497
1546 1555 1553 1553 1550 1549 1551 1553 1555 1559 1563 1569 1563 1558 1553 1551 1551 1552 1552 1553 1552 1552 1551 1550 1549 1547 1545 1543 1541 1539 1536 1534 1531 1528 1524 1521 1518 1515 1512 1510 1507 1504 1501 1499
1546 1551 1551 1552 1548 1548 1550 1549 1552 1553 1553 1555 1554 1552 1544 1544 1547 1549 1550 1550 1550 1550 1550 1549 1548 1546 1545 1543 1541 1539 1537 1535 1532 1529 1526 1523 1520 1517 1514 1511 1509 1506 1504 1501
1548 1552 1557 1561 1551 1551 1557 1547 1547 1547 1545 1547 1551 1547 1542 1545 1545 1546 1547 1548 1548 1548 1548 1548 1547 1545 1544 1543 1541 1539 1538 1535 1533 1530 1528 1525 1522 1519 1516 1513 1511 1508 1506 1503
1547 1553 1562 1563 1559 1564 1551 1536 1536 1539 1538 1538 1537 1537 1538 1539 1541 1543 1544 1545 1546 1546 1547 1546 1546 1545 1544 1542 1541 1540 1538 1536 1534 1531 1529 1526 1523 1521 1518 1515 1513 1510 1508 1506
1543 1550 1561 1568 1566 1559 1544 1535 1535 1538 1538 1533 1534 1534 1537 1539 1541 1542 1542 1543 1543 1544 1545 1545 1545 1544 1543 1542 1541 1540 1538 1536 1534 1532 1530 1527 1525 1522 1520 1517 1515 1512 1510 1508
1545 1549 1561 1566 1563 1562 1547 1534 1533 1537 1540 1529 1530 1532 1535 1538 1544 1540 1538 1540 1542 1543 1543 1544 1543 1543 1542 1542 1541 1540 1538 1536 1535 1533 1531 1529 1526 1524 1521 1519 1516 1514 1512 1510
1552 1555 1562 1565 1565 1557 1538 1534 1535 1548 1542 1528 1527 1528 1531 1532 1534 1534 1535 1538 1540 1541 1542 1542 1542 1542 1542 1541 1540 1539 1538 1537 1535 1533 1532 1530 1527 1525 1523 1520 1518 1516 1514 1512
1552 1558 1561 1566 1565 1557 1532 1533 1537 1534 1527 1526 1526 1526 1527 1528 1531 1532 1533 1535 1537 1539 1540 1541 1541 1541 1541 1540 1540 1539 1538 1536 1535 1534 1532 1531 1529 1527 1525 1522 1520 1517 1515 1513
1544 1543 1546 1549 1546 1531 1528 1527 1526 1526 1525 1525 1525 1525 1526 1527 1528 1530 1532 1534 1535 1537 1538 1539 1539 1539 1539 1539 1539 1538 1537 1536 1535 1534 1533 1531 1530 1528 1526 1524 1521 1519 1517 1515
1535 1533 1536 1536 1531 1526 1525 1525 1525 1525 1524 1524 1523 1523 1524 1524 1526 1527 1529 1531 1533 1534 1535 1536 1537 1537 1537 1537 1537 1537 1536 1535 1534 1533 1532 1531 1530 1529 1527 1525 1523 1521 1519 1517
1536 1533 1534 1533 1527 1524 1523 1523 1522 1522 1522 1522 1522 1521 1522 1522 1523 1525 1526 1528 1530 1531 1533 1534 1534 1535 1535 1535 1535 1535 1534 1534 1533 1532 1532 1531 1530 1529 1527 1526 1524 1522 1520 1518
1540 1540 1539 1535 1529 1528 1525 1523 1522 1521 1520 1520 1520 1520 1520 1520 1521 1522 1523 1525 1526 1528 1529 1530 1531 1532 1532 1532 1532 1532 1532 1532 1531 1531 1530 1530 1529 1528 1527 1526 1525 1523 1521 1519